Location: Diedrich Mobile Home Park
(42.3778°N, 73.8345°W)
Time: 05:07:10
(UTC+00:00)

Daily predictions for brighter satellites

Satellite Brightness Start Highest point End
(mag) Time Altitude Azimuth Time Altitude Azimuth Time Altitude Azimuth
Cosmos 1607 4.0 00:01:06 10° NW 00:07:20 76° WSW 00:08:21 62° S
Cosmos 1697 Rocket 3.0 00:07:47 10° SW 00:13:19 61° WNW 00:13:23 61° WNW
BREEZE-M DEB (TANK) 3.8 00:08:58 10° SW 00:15:42 55° SSW 00:15:42 55° SSW
BREEZE-M DEB (TANK) 4.0 00:19:20 10° WNW 00:23:52 74° NNE 00:23:52 74° NNE
Cosmos 2297 Rocket 4.4 00:43:23 10° NW 00:47:37 22° W 00:51:51 10° SSW
CZ-4C R/B 3.5 00:51:47 10° NW 00:59:02 56° WSW 00:59:10 56° WSW
CZ-3 R/B 4.3 06:50:15 10° WSW 07:40:02 53° S 07:50:48 10° ESE
Cosmos 1697 Rocket 3.5 09:07:46 46° SE 09:07:46 46° SE 09:11:45 10° SSE
USA 238 DEB 3.8 09:06:45 86° SSW 09:06:45 86° SSW 09:14:49 10° SSE
USA 238 3.8 09:06:49 87° SW 09:06:49 87° SW 09:14:56 10° SSE
Cosmos 1833 Rocket 4.3 09:40:09 22° N 09:40:09 22° N 09:42:16 10° NNE
Cosmos 2082 Rocket 3.1 09:34:00 10° S 09:39:22 47° ESE 09:44:43 10° NE
FengYun 1-2 T 4.3 09:34:20 10° NNE 09:40:00 76° ESE 09:45:39 10° S
Cosmos 1634 Rocket 3.9 09:41:04 64° WSW 09:41:04 64° WSW 09:46:46 10° S
Cosmos 1763 Rocket 4.2 09:45:09 42° N 09:45:09 42° N 09:48:40 10° NNE
Cosmos 1536 Rocket 4.1 09:40:13 10° S 09:44:33 56° E 09:48:54 10° NNE
NOSS 3-4 (A) 4.5 09:47:25 26° N 09:47:25 26° N 09:50:50 10° NNE
NOSS 3-4 (C) 4.4 09:47:33 27° N 09:47:33 27° N 09:51:00 10° NNE
SL-4 R/B 4.2 09:53:04 12° NNE 09:53:04 12° NNE 09:53:25 10° NE
Helios 1A Rocket 4.5 09:48:28 10° SE 09:51:18 26° ENE 09:52:32 21° NE
SKYMED 2 4.0 09:51:57 10° SSE 09:56:13 61° ENE 09:58:32 26° N
Cosmos 2098 Rocket 3.6 09:55:01 19° N 09:59:10 84° W 10:04:59 10° S
Cosmos 2279 Rocket 3.9 09:56:49 17° NNW 10:01:40 66° W 10:07:50 10° S
SL-8 R/B 3.5 10:01:43 69° WNW 10:02:17 87° SSW 10:07:03 10° ESE
Cosmos 2369 4.4 10:00:12 17° NNW 10:04:33 53° ENE 10:10:04 10° SE
Cosmos 990 Rocket 3.9 10:04:29 52° WNW 10:05:28 63° WSW 10:10:36 10° S
Cosmos 1980 Rocket 2.0 10:04:00 33° NNW 10:06:40 86° WSW 10:12:15 10° SSE
SL-24 R/B - RUBIN 2 3.6 10:06:39 46° NNW 10:07:49 72° NE 10:12:10 10° SE
Cosmos 2180 Rocket 4.4 10:02:42 10° N 10:08:58 82° W 10:15:17 10° S
BREEZE M DEB (TANK) 4.4 10:14:50 10° SSE 10:15:52 12° SE 10:17:02 10° ESE
Cosmos 967 Rocket 4.5 10:12:15 25° NNW 10:16:16 86° WSW 10:22:43 10° SSE
Tiangong -2.0 10:16:27 74° SSE 10:16:27 74° SSE 10:19:33 10° E
PKM 3.3 10:16:37 71° SSW 10:16:37 71° SSW 10:19:07 10° SE
Cosmos 2333 Rocket 4.2 10:16:33 10° N 10:21:10 24° NE 10:25:45 10° ESE
Cosmos 1346 Rocket 2.5 10:21:47 10° S 10:25:28 89° ESE 10:29:11 10° N
Cosmos 540 Rocket 4.1 10:25:56 33° WNW 10:25:56 33° WNW 10:30:24 10° N
USA 59 Rocket 0.7 10:24:05 24° N 10:26:04 47° NE 10:30:43 10° SE
Cosmos 1606 Rocket 3.5 10:24:55 10° N 10:29:23 87° E 10:33:48 10° S
COSMO-SKYMED 1 2.3 10:25:31 10° SSE 10:29:38 86° W 10:33:22 13° NNW
Cosmos 2026 Rocket 4.3 10:28:04 10° S 10:34:01 66° E 10:40:03 10° NNE
Cosmos 2360 Rocket 4.3 10:34:26 10° N 10:38:45 22° NE 10:43:02 10° E
Meteor 2-3 Rocket 3.8 10:35:38 10° S 10:41:23 86° E 10:47:08 10° N
Cosmos 841 Rocket 3.4 10:37:13 10° SSW 10:42:26 78° WNW 10:47:42 10° NNE
COSMOS 2455 2.8 10:38:05 13° NNW 10:43:30 90° NE 10:49:31 10° SSE
NOSS 2-1 (C) 3.8 10:42:44 18° NNW 10:45:19 60° NE 10:50:04 10° SE
RUBIN 8/PSLV 4.5 10:44:19 10° N 10:48:36 62° WNW 10:52:49 10° SSW
IRS-1D 3.9 10:44:30 10° N 10:49:02 36° WNW 10:53:38 10° SW
Cosmos 1484 Rocket 2.3 10:45:36 10° NNE 10:49:03 87° WNW 10:52:26 10° SSW
Cosmos 1697 Rocket 4.2 10:49:33 17° W 10:49:33 17° W 10:52:50 10° SW
NOAA 12 4.4 10:46:43 10° N 10:51:40 41° WNW 10:56:33 10° SW
Cosmos 1092 Rocket 4.1 10:47:24 10° S 10:53:42 82° E 10:59:59 10° N
Cosmos 1933 3.8 10:54:54 15° NNW 10:57:36 35° W 11:01:04 10° SSW
Cosmos 1726 Rocket 3.5 10:53:21 10° NNW 10:57:43 62° W 11:01:55 10° S
Cosmos 220 Rocket 3.8 10:54:55 10° SSW 10:58:54 58° WNW 11:02:56 10° NNE
Cosmos 1898 Rocket 3.5 10:53:50 10° NNW 10:58:59 61° WSW 11:04:08 10° S
Cosmos 2322 Rocket 3.7 10:53:51 10° N 10:59:00 33° NE 11:04:05 10° ESE
Cosmos 2219 Rocket 4.4 10:55:23 10° N 10:59:27 20° NE 11:03:30 10° E
SWAS 4.4 10:56:27 10° NNW 11:00:31 79° ENE 11:04:32 10° SSE
Nadezhda 4 Rocket 4.3 10:56:00 10° SSW 11:01:57 43° WNW 11:07:56 10° N
Cosmos 2237 4.2 10:56:36 10° NNW 11:02:19 79° WSW 11:08:00 10° SSE
COSMOS 2406 3.1 10:58:12 10° SSW 11:03:50 68° WNW 11:09:30 10° NNE
SMAP 3.6 11:04:49 10° NNE 11:09:28 64° E 11:14:04 10° S
CZ-2D R/B 4.2 11:06:45 10° NNE 11:09:46 41° E 11:12:47 10° S
Cosmos 1892 Rocket 3.7 11:06:27 10° SSW 11:10:40 50° WNW 11:14:57 10° N
Meteor 2-2 Rocket 4.3 11:10:29 10° N 11:16:11 89° E 11:21:57 10° S
Landsat 7 4.5 11:11:44 10° NNE 11:16:21 59° E 11:20:56 10° S
NOSS 3-1 (C) 4.2 11:10:29 10° NW 11:17:53 83° WSW 11:26:59 10° SSE
Cosmos 405 Rocket 3.7 11:16:45 10° SSE 11:19:49 42° E 11:22:57 10° NNE
CZ-3 R/B 4.2 11:12:10 10° W 11:19:58 16° SW 11:24:36 10° SSW
Cosmos 2082 Rocket 3.0 11:18:53 10° WSW 11:23:37 27° NW 11:28:22 10° N
ARIANE 5 R/B 3.2 11:18:28 10° NNE 11:23:39 62° ESE 11:28:48 10° S
SL-16 R/B 2.3 11:18:09 10° NNW 11:23:51 87° ENE 11:29:31 10° SSE
Helios 1A Rocket 4.1 11:21:44 10° SW 11:23:54 16° W 11:26:06 10° NW
MOS 1 Rocket 4.4 11:20:38 10° NNE 11:25:56 58° E 11:31:10 10° S
BREEZE-M DEB (TANK) 3.0 11:23:10 11° WNW 11:26:08 68° NNE 11:34:25 10° E
Cosmos 858 Rocket 4.5 11:21:23 10° NNW 11:26:32 67° WSW 11:31:39 10° S
IRIDIUM 114 4.4 11:21:39 10° S 11:26:52 88° E 11:32:07 10° N
Cosmos 1937 Rocket 3.8 11:23:15 10° NNW 11:28:07 45° WSW 11:32:58 10° S
SL-4 R/B 3.4 11:27:11 10° NW 11:29:20 16° N 11:31:27 10° NE
IGS 5A 4.0 11:28:57 10° N 11:32:36 34° WNW 11:36:13 10° SW
IRIDIUM 103 4.3 11:30:50 10° S 11:36:02 76° W 11:41:17 10° N
Cosmos 2221 3.8 11:33:29 10° N 11:37:25 40° ENE 11:41:19 10° SSE
Cosmos 2058 Rocket 3.4 11:36:23 10° NNW 11:40:37 44° W 11:44:48 10° SSW
